Location: Kellogg
(38.0159°N, 90.0546°W)
Time: 18:31:18
(UTC+00:00)

S-56A Canister/Altair - Pass Details

Date: 17 September 2024
Orbit: 636 x 2487 km, 38.9° (Epoch: 04 October)

Event Time Altitude Azimuth Distance (km) Brightness Sun altitude
Rises 04:50:59 0° 285° (WNW) 4,028 11.6 -47.3°
Reaches altitude 10° 04:53:24 10° 281° (WNW) 3,272 11.0 -47.5°
Enters shadow 04:54:36 16° 279° (W) 2,927 10.6 -47.6°
Maximum altitude 05:01:42 59° 205° (SSW) 1,897 - -48.1°
Drops below altitude 10° 05:14:00 10° 130° (SE) 4,731 - -48.8°
Sets 05:18:15 0° 127° (SE) 5,920 - -49.1°
